Date,TemperatureHighF,TemperatureAvgF,TemperatureLowF,DewpointHighF,DewpointAvgF,DewpointLowF,HumidityHigh,HumidityAvg,HumidityLow,PressureMaxIn,PressureMinIn,WindSpeedMaxMPH,WindSpeedAvgMPH,GustSpeedMaxMPH,PrecipitationSumIn
2013-2-1,47.3,42.5,37.6,42.5,39.3,36.0,96,88,75,29.85,29.45,0,0,0,0.27
2013-2-2,44.1,38.6,29.5,38.0,31.1,25.1,96,75,59,30.24,29.59,0,0,0,0.01
2013-2-3,49.5,41.2,29.7,46.5,36.8,25.0,91,84,76,30.25,29.91,0,0,0,0.00
2013-2-4,52.9,48.5,43.2,47.0,39.9,33.2,90,73,52,29.95,29.72,0,0,0,0.00
2013-2-5,44.8,40.7,35.8,38.8,32.3,25.5,95,73,48,29.72,29.33,0,0,0,0.11
2013-2-6,42.8,40.0,35.6,39.0,35.0,27.1,94,82,67,29.95,29.35,0,0,0,0.06
2013-2-7,43.3,37.3,32.5,36.1,30.4,25.9,96,77,61,30.00,29.87,0,0,0,0.05
2013-2-8,46.4,37.8,31.6,36.2,32.9,30.5,97,83,55,30.03,29.91,0,0,0,0.00
2013-2-9,40.5,37.3,34.2,36.8,34.6,30.7,95,90,79,30.04,29.74,0,0,0,0.01
2013-2-10,41.9,38.5,34.0,40.4,37.4,33.2,99,96,91,29.74,29.14,0,0,0,0.32
2013-2-11,35.8,34.5,33.1,34.4,33.4,32.7,99,96,91,29.65,29.16,0,0,0,0.11
2013-2-12,36.1,35.1,34.3,33.8,30.5,28.1,95,83,75,29.86,29.65,0,0,0,0.00
2013-2-13,40.3,37.1,34.5,38.7,34.5,30.5,95,90,85,29.92,29.79,0,0,0,0.01
2013-2-14,53.4,46.7,40.1,48.5,41.9,37.1,99,84,63,29.80,29.54,0,0,0,0.05
2013-2-15,52.3,42.1,34.7,40.1,36.1,33.4,98,80,51,30.02,29.80,0,0,0,0.00
2013-2-16,54.3,44.0,34.7,39.4,36.0,31.4,96,75,42,30.06,30.01,0,0,0,0.00
2013-2-17,37.2,35.8,32.7,36.1,34.7,31.7,97,96,94,30.02,29.91,0,0,0,0.00
2013-2-18,52.2,39.3,31.1,37.7,34.0,29.8,99,83,51,29.95,29.89,0,0,0,0.00
2013-2-19,56.1,37.1,25.5,39.4,31.7,25.3,99,83,47,29.93,29.84,0,0,0,0.00
2013-2-20,43.9,38.1,34.5,39.1,32.3,26.6,99,80,59,30.05,29.90,0,0,0,0.02
2013-2-21,36.9,34.5,32.0,27.0,22.8,20.3,71,62,54,30.06,29.95,0,0,0,0.00
2013-2-22,36.5,34.0,32.9,25.7,22.9,19.9,72,64,57,29.95,29.88,0,0,0,0.00
2013-2-23,36.3,34.2,32.5,28.2,24.8,21.5,79,68,55,30.00,29.88,0,0,0,0.00
2013-2-24,36.9,34.7,33.3,29.0,27.3,25.8,83,74,67,30.07,29.98,0,0,0,0.00
2013-2-25,40.3,38.0,34.7,36.0,33.5,27.9,90,84,75,30.17,30.05,7,1,13,0.00
2013-2-26,41.4,39.3,36.9,39.1,37.6,34.9,98,93,87,30.35,30.16,6,2,14,0.01
2013-2-27,45.3,39.2,36.1,37.7,34.3,32.6,95,83,64,30.36,30.27,8,3,14,0.00
2013-2-28,46.9,39.9,34.7,37.7,34.5,32.1,91,81,67,30.28,30.13,7,2,12,0.00